Theta_e
310 309 308 308 308 307 308 308 309 309 309 310 312 312 312 313 313 313 315 317 316 317 325 331 338 337 339 349 350 344 349 350 349 349 350 350 350 349 349 347 345 348 343 344 346
311 310 310 310 309 308 308 308 308 308 309 309 310 311 312 313 314 316 319 318 316 316 322 335 345 340 351 342 342 344 345 345 343 342 348 349 349 348 348 347 349 347 343 346 347
317 315 312 311 311 311 310 309 309 309 308 308 309 310 310 311 313 319 322 323 318 317 317 322 345 351 349 346 342 343 345 342 341 342 347 349 348 349 346 347 348 346 346 347 347
318 317 317 317 315 312 312 312 310 310 309 308 309 310 310 310 314 324 321 322 324 316 320 333 349 348 340 346 346 345 343 342 341 341 346 348 348 349 345 346 345 341 344 347 348
318 318 317 316 317 317 315 313 313 312 310 309 309 309 309 310 315 320 320 321 321 317 319 329 344 342 327 334 343 344 344 343 343 341 344 348 348 348 347 348 347 346 346 347 348
315 316 318 317 316 316 317 317 314 314 312 310 309 308 308 307 318 319 318 318 320 318 321 323 328 337 326 326 338 341 343 342 342 341 342 348 348 348 347 348 348 347 348 348 347
309 311 313 315 316 315 316 319 318 315 314 311 309 308 308 313 317 320 319 318 318 322 322 322 325 327 325 327 333 337 341 341 341 340 340 340 345 349 347 348 349 348 348 348 348
306 306 306 309 312 313 316 320 318 317 314 313 312 309 309 314 315 316 319 320 319 320 321 321 322 324 326 327 327 327 330 332 328 338 339 339 341 346 348 349 349 348 348 348 348
306 306 306 306 307 309 315 318 315 315 316 319 314 310 312 314 315 317 318 320 321 321 321 323 324 324 324 324 321 318 324 326 326 337 336 337 341 347 348 348 350 349 348 348 347
307 306 306 307 307 309 315 315 315 319 320 321 320 318 319 318 324 327 321 319 321 322 324 326 325 320 317 318 324 322 323 323 325 338 336 336 338 348 347 348 350 349 349 349 347
307 307 307 308 307 311 313 314 314 315 312 315 320 320 319 320 320 325 325 320 322 324 322 323 321 322 320 319 320 322 323 324 325 325 339 337 342 348 347 346 348 349 349 348 347
304 305 306 307 308 310 311 311 308 307 307 314 316 315 318 318 318 323 325 320 319 318 319 319 323 321 321 320 321 320 321 321 325 336 336 338 341 347 346 345 345 346 347 347 346
303 303 304 305 307 309 310 310 309 309 307 311 314 315 315 316 317 320 322 321 319 317 317 320 320 320 322 321 321 320 320 321 323 335 340 340 341 345 346 346 346 346 345 345 345
302 302 303 303 306 306 310 310 310 311 308 312 312 314 314 316 317 320 322 322 319 320 317 317 319 320 321 322 322 321 321 323 323 329 334 338 343 341 343 343 343 346 346 346 345
302 301 302 302 304 304 307 308 311 311 319 321 315 315 315 316 318 318 320 323 319 319 317 318 318 319 321 322 321 323 323 322 324 324 329 334 338 338 339 341 339 339 345 345 345
302 302 302 303 302 305 305 308 312 310 316 318 317 315 314 315 316 317 323 325 322 319 319 320 321 319 320 321 322 322 323 321 322 322 329 328 338 340 342 340 338 336 340 344 344
303 302 302 302 302 302 303 307 308 311 315 318 315 315 316 314 316 320 319 320 321 320 320 320 319 321 321 320 320 320 317 319 319 321 324 322 334 335 335 339 339 338 337 340 343
303 302 301 302 307 303 306 306 309 314 312 314 315 315 318 316 316 316 322 322 322 321 321 322 323 321 320 321 321 319 320 316 319 321 322 323 330 329 334 336 340 340 339 338 340
303 302 302 305 307 308 308 307 309 310 314 314 314 316 314 315 315 316 315 324 324 320 322 321 322 322 323 321 322 319 320 319 316 320 320 323 328 332 334 335 336 339 339 339 339
303 302 303 305 304 306 306 308 309 312 312 313 314 314 314 314 315 314 315 316 317 324 319 320 323 321 322 322 320 322 316 319 311 319 321 319 324 329 334 335 334 338 340 340 340
303 303 303 304 305 308 306 306 309 311 311 312 312 313 313 313 313 314 315 316 318 318 316 317 319 322 322 321 322 318 320 316 316 314 321 318 321 323 329 332 333 335 340 342 341
302 300 304 304 302 302 306 308 310 310 311 310 312 312 313 314 314 314 314 315 316 316 318 316 313 321 322 321 323 322 321 319 318 317 316 321 320 324 325 325 330 334 338 340 343
302 302 304 306 306 303 304 309 310 309 310 310 311 311 312 313 314 317 317 316 314 313 319 320 317 316 317 318 318 321 320 320 319 315 321 320 320 319 323 328 331 334 336 338 342
302 302 303 304 304 304 304 306 307 309 309 310 310 312 313 314 314 315 315 315 312 313 317 314 314 316 319 319 319 319 321 321 319 319 321 322 322 322 324 323 327 336 338 339 343
302 303 302 301 302 302 305 306 308 308 308 309 308 310 312 313 312 314 313 311 311 313 310 312 315 316 317 318 320 319 322 322 319 322 322 323 319 319 319 323 326 330 336 338 340
303 303 302 302 302 302 301 305 307 306 307 310 309 308 309 311 311 311 311 310 310 310 308 309 316 315 318 320 322 322 321 323 323 323 320 318 318 317 319 321 322 326 329 336 339
303 302 303 303 304 302 301 303 303 304 306 307 307 307 307 307 309 309 309 309 308 309 308 309 313 316 319 318 319 321 322 322 323 323 323 320 319 318 318 318 319 323 324 328 332
Wind_Speed
18 18 18 17 17 18 18 18 19 18 19 19 18 18 19 20 20 22 27 22 17 19 8 23 19 25 25 16 8 7 3 4 5 8 4 20 7 15 4 20 9 7 22 35 34
20 20 20 20 19 19 19 20 20 19 18 19 19 18 19 21 24 27 18 18 20 21 23 23 30 33 12 10 9 5 4 8 5 4 12 22 20 20 8 15 3 14 27 36 34
21 21 21 21 21 21 21 20 20 21 20 20 19 17 18 18 21 2 3 4 21 26 23 22 28 26 7 9 11 6 5 3 5 12 21 23 16 11 23 8 15 34 40 39 37
23 23 23 23 23 22 22 22 21 21 21 20 20 16 17 13 6 3 3 1 17 29 26 30 34 12 8 7 12 4 15 10 3 3 27 18 18 9 27 11 32 40 46 43 40
24 25 24 24 24 24 24 23 22 21 20 21 21 17 15 11 28 12 8 6 16 35 35 34 34 17 7 8 7 5 12 12 15 4 18 26 22 15 27 9 32 37 42 44 42
26 26 25 25 25 25 25 24 23 22 22 21 20 17 14 11 15 7 13 21 14 30 33 29 24 30 6 5 14 8 25 20 17 12 10 20 22 16 27 25 35 40 41 42 43
29 29 28 27 27 27 25 23 23 23 24 22 19 17 20 34 9 6 13 17 21 23 29 28 18 26 10 3 15 24 3 9 16 10 9 20 7 17 24 34 35 38 38 42 42
31 32 32 30 29 29 27 21 20 22 22 18 16 16 14 11 13 32 23 17 14 19 22 13 24 24 8 5 5 3 5 4 11 16 17 16 9 16 33 36 34 36 35 37 41
31 32 34 33 31 31 27 19 19 16 15 11 8 10 12 10 14 18 27 29 23 20 24 15 19 14 9 3 4 5 4 6 2 11 7 11 6 9 38 37 33 35 36 35 34
34 35 35 35 34 34 24 15 6 4 3 4 4 4 13 7 1 3 16 24 22 22 15 16 11 6 4 5 9 5 3 2 5 5 13 7 5 19 34 34 35 36 35 36 35
35 36 37 36 39 24 18 4 6 1 7 11 6 10 16 11 9 6 10 28 21 16 8 10 7 12 9 7 5 6 3 4 4 8 1 13 6 21 31 28 28 32 34 36 39
31 32 34 34 32 21 20 8 15 11 17 24 30 38 41 34 11 13 13 21 12 8 6 2 14 8 8 8 8 6 6 6 5 6 9 10 9 19 22 32 37 37 37 40 37
31 31 32 28 22 23 17 7 18 21 7 15 26 25 24 28 21 30 22 25 6 9 9 11 6 11 9 6 9 6 10 5 7 0 2 5 3 12 18 12 24 30 37 40 42
32 30 31 34 12 28 5 17 16 14 4 8 6 7 14 12 9 44 26 29 5 19 8 6 9 10 7 10 10 10 5 6 8 5 5 6 5 14 17 18 17 27 33 36 39
35 31 29 26 30 27 17 18 11 1 6 3 3 4 13 17 3 18 39 23 14 9 9 10 14 17 13 14 8 9 6 7 6 5 1 5 2 7 18 16 21 25 39 40 42
35 34 30 28 31 12 23 18 4 3 9 5 3 4 4 6 5 8 17 19 11 5 4 15 9 14 17 9 13 5 3 2 0 3 7 12 8 9 10 26 23 26 38 46 46
35 34 29 32 33 24 20 12 3 5 6 5 5 7 3 3 4 4 18 12 11 8 15 5 18 4 7 9 6 6 7 4 3 4 11 10 7 15 9 15 21 24 40 46 49
37 34 28 24 19 6 4 3 6 3 4 5 6 10 1 10 4 6 12 18 13 4 9 9 5 17 7 10 11 10 14 6 8 4 7 5 10 13 16 18 30 31 42 45 46
34 32 30 14 15 7 6 3 6 4 4 10 8 4 6 7 10 10 7 15 17 11 8 9 9 4 12 7 17 8 12 12 3 2 3 5 8 6 9 11 14 20 23 34 44
32 30 14 9 27 9 3 4 4 3 9 5 4 6 6 9 8 11 6 4 9 12 5 7 2 8 10 11 10 14 8 4 2 11 14 5 7 6 10 17 12 10 23 34 40
25 15 12 24 18 6 3 6 6 20 9 7 5 4 2 5 7 5 5 7 14 11 7 1 4 4 7 8 19 3 9 4 7 6 10 2 10 9 9 11 13 15 30 38 41
12 4 18 23 8 4 3 12 7 14 23 7 4 5 2 5 3 2 6 3 20 10 6 7 2 15 18 5 14 19 14 12 5 10 6 11 10 3 17 14 9 15 28 41 45
19 7 12 10 4 6 9 9 14 11 8 6 4 5 5 3 4 3 5 8 21 11 7 8 4 2 6 3 3 8 10 16 13 1 21 7 6 8 7 7 15 18 25 27 34
8 5 7 5 7 3 4 5 10 10 9 7 3 4 5 3 3 5 9 4 16 10 15 4 3 5 11 4 5 8 10 15 16 11 14 20 4 4 7 11 9 15 22 25 34
3 2 2 4 3 5 7 4 7 9 8 11 4 6 3 2 2 3 3 9 7 8 7 4 4 4 7 11 15 15 15 25 19 24 16 14 14 13 10 10 11 18 18 19 29
4 3 3 9 10 4 4 3 3 6 5 4 6 10 4 4 4 4 4 2 5 6 6 5 4 5 6 10 13 16 19 24 29 23 14 7 8 9 17 25 16 25 22 23 32
6 9 6 6 3 2 3 1 9 15 7 6 15 14 7 8 11 17 18 18 14 5 2 2 2 5 5 6 10 12 31 20 12 13 18 14 8 8 8 10 15 30 32 31 30
Wind_Direction
339 335 330 325 321 316 312 309 307 306 304 304 303 304 302 297 293 285 272 264 241 210 140 152 165 167 173 178 181 163 110 219 244 209 186 155 144 164 175 145 154 168 163 160 158
338 336 333 329 324 320 313 309 306 304 303 301 300 302 301 302 301 290 296 264 236 212 195 171 160 164 177 166 162 162 195 211 219 170 164 174 160 165 125 155 74 120 149 152 160
335 332 328 326 324 322 319 315 308 306 305 302 299 300 299 306 312 341 40 228 196 206 199 190 165 163 189 181 191 195 224 190 224 229 171 170 175 169 146 197 180 149 153 161 167
337 333 329 326 322 319 317 314 311 306 303 300 297 297 294 294 280 165 49 35 194 182 176 173 167 189 197 189 203 234 237 243 247 206 167 170 160 169 171 189 178 164 162 164 172
337 334 331 327 322 317 315 311 307 303 299 295 293 294 286 260 250 236 270 357 177 171 178 178 176 198 188 192 163 241 265 291 260 205 175 166 178 182 204 182 170 163 164 169 177
342 335 330 329 327 320 312 308 304 303 298 290 286 281 266 246 276 285 213 226 177 174 183 191 193 197 285 246 190 222 232 252 283 217 161 178 193 168 211 170 165 167 172 179 183
345 341 339 332 327 322 317 305 306 300 296 290 280 268 252 251 255 223 184 209 208 198 193 200 189 192 238 257 242 235 205 247 259 255 221 186 182 203 187 174 169 175 180 184 189
348 344 342 339 332 325 319 312 306 297 295 289 272 249 251 269 232 225 228 223 209 215 220 215 210 207 220 283 320 216 134 219 251 222 236 176 216 199 173 170 180 178 186 192 192
348 345 343 342 337 328 325 316 306 301 292 292 248 226 262 247 244 232 217 220 222 220 216 220 213 210 217 169 335 359 226 217 331 209 194 165 208 172 171 177 180 183 189 197 195
348 345 344 344 342 333 332 323 320 316 314 286 222 256 244 231 200 301 212 199 194 205 208 220 203 168 150 148 204 185 214 249 256 226 186 173 175 163 179 179 185 185 192 198 203
344 342 340 342 345 348 356 13 349 308 291 241 237 256 254 281 283 226 194 182 188 178 165 192 189 209 193 184 179 156 186 182 282 292 153 199 161 179 182 188 193 190 195 201 210
341 338 336 340 351 10 360 69 33 331 293 283 265 258 253 253 292 230 202 167 171 179 160 165 219 204 194 194 218 206 206 245 259 248 190 217 203 187 181 196 195 191 198 205 208
343 340 336 342 345 350 356 37 348 331 259 283 247 249 248 221 217 236 186 185 142 166 193 203 224 184 188 190 201 213 208 174 209 117 52 120 163 189 208 216 205 208 204 206 203
344 342 339 334 345 343 7 337 330 323 312 275 236 252 184 183 228 222 201 187 169 196 155 214 218 187 179 210 193 235 169 158 215 141 213 171 235 190 195 208 207 211 213 213 212
342 343 341 335 319 328 325 337 315 341 318 224 193 158 170 170 173 204 201 191 186 167 153 216 186 197 211 209 174 241 171 187 210 208 177 236 183 232 183 206 213 206 212 214 214
342 340 336 330 314 321 323 334 321 44 247 305 63 32 116 256 285 100 168 187 190 165 229 214 201 198 212 193 205 171 313 58 344 154 235 229 198 233 188 210 215 208 214 214 212
343 341 332 317 318 312 304 323 68 205 332 356 345 340 289 245 244 201 179 185 169 157 208 178 223 216 154 186 185 140 123 257 264 212 233 214 192 229 209 204 209 208 212 212 210
339 341 328 343 342 304 297 62 207 229 292 10 330 294 70 6 337 332 177 193 209 121 185 183 214 210 199 189 194 195 188 163 191 207 227 160 230 236 218 236 219 214 212 212 207
337 342 335 29 13 342 172 195 211 206 24 343 324 27 347 9 358 12 357 214 202 180 170 183 234 228 196 176 175 197 195 195 156 208 9 221 278 314 217 244 235 222 218 212 205
338 336 8 11 341 327 53 264 278 344 359 352 18 17 355 350 354 20 342 357 349 225 223 204 226 212 203 178 218 195 171 161 340 217 240 251 243 213 191 220 228 214 210 217 212
339 327 13 343 324 188 199 243 297 304 11 354 331 307 305 341 11 3 289 312 20 345 1 83 162 251 138 190 198 167 206 199 175 169 223 219 255 181 212 214 215 214 213 217 209
343 337 360 358 46 360 355 316 260 283 307 285 273 277 303 17 317 277 237 304 22 355 11 336 256 237 228 219 193 213 215 195 190 227 240 230 233 252 200 214 207 240 232 233 218
329 296 22 357 57 356 328 326 347 20 331 352 335 36 21 358 330 53 327 51 17 15 9 340 299 224 323 335 246 209 201 207 211 146 230 203 246 237 200 207 211 217 248 241 231
333 332 342 46 76 8 322 345 335 326 309 350 300 51 17 13 37 316 312 332 356 342 2 2 284 247 247 274 183 208 214 212 199 222 220 233 209 210 211 217 219 227 236 227 216
316 282 341 308 348 320 315 293 342 0 333 330 7 43 70 311 288 256 336 320 345 11 14 64 283 283 286 295 287 263 226 217 212 219 204 226 206 229 202 204 221 231 240 222 208
274 295 305 274 282 306 304 352 18 344 288 350 341 310 269 201 251 290 290 257 267 323 360 2 279 329 284 264 255 261 258 234 218 219 229 197 228 212 219 222 222 235 238 220 214
285 281 286 287 269 282 251 349 328 315 280 195 303 311 299 267 277 270 253 257 251 249 290 293 270 339 269 305 319 256 232 243 246 207 204 208 202 197 240 203 221 235 236 233 225